This is the latest recevied weather packets stored in our database for station/object K7SKM. If no packets are shown the sender has not sent any weather packets the latest 10 day(s).
| Time | Temp. | Humidity | Pressure | Rain* | Wind** | Luminosity | Snow |
|---|---|---|---|---|---|---|---|
| 1776978801 | 13.33° C | 61% | 1027 hPa | 0 mm | - | 113 W/m² | - |
| 1776978499 | 12.78° C | 62% | 1027 hPa | 0 mm | - | 103 W/m² | - |
| 1776978196 | 13.33° C | 62% | 1027.1 hPa | 0 mm | - | 96 W/m² | - |
| 1776977893 | 12.78° C | 62% | 1027.2 hPa | 0 mm | - | 81 W/m² | - |
| 1776977590 | 12.78° C | 62% | 1027.2 hPa | 0 mm | - | 74 W/m² | - |
| 1776977285 | 12.78° C | 61% | 1027 hPa | 0 mm | - | 75 W/m² | - |
| 1776976983 | 13.33° C | 60% | 1027 hPa | 0 mm | - | 80 W/m² | - |
| 1776976678 | 13.89° C | 60% | 1027 hPa | 0 mm | - | 90 W/m² | - |
| 1776976373 | 13.33° C | 57% | 1026.9 hPa | 0 mm | - | 94 W/m² | - |
| 1776976069 | 13.89° C | 59% | 1027.1 hPa | 0 mm | - | 103 W/m² | - |
| 1776975766 | 13.33° C | 61% | 1027 hPa | 0 mm | - | 130 W/m² | - |
| 1776975463 | 12.78° C | 60% | 1027.2 hPa | 0 mm | - | 134 W/m² | - |
| 1776975159 | 13.33° C | 60% | 1027.2 hPa | 0 mm | - | 175 W/m² | - |
| 1776974857 | 13.89° C | 58% | 1027.3 hPa | 0 mm | - | 195 W/m² | - |
| 1776974554 | 13.89° C | 59% | 1027.2 hPa | 0 mm | - | 220 W/m² | - |
| 1776974251 | 13.33° C | 59% | 1027.2 hPa | 0 mm | - | 195 W/m² | - |
| 1776973948 | 13.33° C | 60% | 1027.2 hPa | 0 mm | - | 170 W/m² | - |
| 1776973645 | 13.33° C | 60% | 1027.4 hPa | 0 mm | - | 135 W/m² | - |
| 1776973343 | 13.33° C | 58% | 1027.3 hPa | 0 mm | - | 131 W/m² | - |
| 1776973041 | 12.78° C | 59% | 1027.3 hPa | 0 mm | - | 135 W/m² | - |
| 1776972736 | 12.78° C | 60% | 1027.4 hPa | 0 mm | - | 141 W/m² | - |
| 1776972436 | 12.78° C | 60% | 1027.6 hPa | 0 mm | - | 157 W/m² | - |
* Rain latest hour (hover to see other rain measurements)
** Current wind speed in m/s (hover to see current wind gust speed)